Wind_Speed
14 14 13 13 13 13 13 14 14 14 14 14 15 15 15 15 15 16 16 16 17 17 18 18 19 19 19 20 20 20 20 20 21 21 21 21 21 21
13 13 13 14 14 13 14 14 14 14 14 15 15 16 16 16 16 16 16 17 18 18 18 19 19 20 20 20 20 20 20 21 21 22 22 22 22 22
13 13 13 14 13 13 14 14 15 15 15 15 15 16 16 16 16 16 16 17 18 19 19 19 20 20 21 21 21 22 22 23 23 23 23 23 23 23
14 14 14 14 14 15 15 15 16 15 15 16 17 17 17 17 17 17 18 19 19 20 20 21 22 22 22 22 23 23 23 24 24 24 24 24 24 24
15 15 14 14 14 15 16 16 16 16 15 16 17 17 18 18 19 19 20 20 20 21 21 22 22 22 23 23 23 24 24 24 24 25 25 26 26 26
16 16 16 15 15 15 15 15 15 15 15 16 17 17 18 18 19 20 20 20 20 21 21 22 22 23 23 24 24 24 24 25 25 25 26 26 26 27
16 16 16 15 15 15 15 16 16 16 16 16 17 18 18 18 19 19 20 21 21 21 22 23 23 23 24 24 24 24 25 25 25 25 26 26 27 27
17 16 16 15 16 15 15 16 16 17 17 17 17 18 19 19 19 19 20 21 21 22 23 23 24 24 24 24 24 24 24 24 25 25 26 26 27 28
18 18 17 17 16 16 16 17 17 17 18 19 19 19 20 20 21 21 21 22 22 23 23 23 24 24 25 25 25 25 25 25 25 26 26 27 27 28
19 19 19 19 18 18 18 18 18 19 19 19 19 20 20 21 21 22 22 22 23 23 24 24 24 24 24 25 25 25 25 26 26 27 28 28 28 28
20 19 19 19 19 19 19 19 20 20 20 20 20 20 20 21 22 22 23 23 23 23 24 24 24 25 25 25 25 25 25 25 26 27 28 28 29 28
20 19 19 19 19 19 20 20 20 21 21 21 21 21 21 22 23 23 23 22 22 23 24 24 25 25 25 25 25 25 25 26 26 26 26 27 27 27
20 20 19 19 20 20 21 21 21 22 23 23 22 22 22 23 23 23 22 22 23 24 24 25 25 26 26 26 25 25 25 25 25 25 26 26 26 26
21 21 22 21 21 22 22 22 23 23 23 23 23 23 23 23 23 22 23 23 24 25 25 26 26 26 26 25 25 25 24 24 25 25 25 24 24 24
22 22 23 23 23 23 23 23 24 24 24 23 23 23 23 22 22 22 23 24 24 26 26 26 25 25 25 25 24 24 24 24 24 24 23 23 24 24
23 23 23 24 24 24 25 25 25 24 23 23 24 23 23 23 23 23 24 24 25 26 26 25 25 25 25 25 24 24 24 23 23 23 23 23 23 24
23 23 24 25 25 25 25 25 25 25 24 24 24 23 23 23 23 24 24 24 25 25 25 25 25 25 25 25 25 24 24 23 23 23 23 23 23 23
24 24 24 25 25 26 26 25 25 24 24 25 25 24 24 24 25 25 25 25 25 25 25 25 25 25 25 25 24 24 24 24 24 24 24 23 23 23
25 25 25 25 26 25 25 24 23 24 24 24 24 25 25 25 25 25 25 25 25 25 25 25 25 25 25 24 24 24 23 23 23 23 23 23 23 22
26 26 26 26 25 25 24 24 23 24 24 24 24 24 24 25 25 25 25 25 25 24 25 25 25 25 25 24 23 23 23 23 23 24 24 24 23 22
26 26 25 25 25 25 25 24 24 24 24 24 25 24 24 24 25 25 25 25 25 25 25 25 25 25 24 24 23 23 23 23 23 23 24 24 24 23
26 26 26 26 25 25 25 24 24 24 25 25 24 24 24 25 25 25 25 25 25 25 25 25 24 24 23 23 23 23 23 23 24 24 24 24 24 24
26 26 26 26 25 25 25 25 24 24 24 24 24 24 25 25 25 25 25 25 25 25 24 24 24 24 24 24 24 23 24 25 25 24 24 25 25 25
Wind_Direction
293 288 281 278 276 273 269 271 275 276 277 274 274 272 274 278 276 272 271 274 275 276 278 279 279 280 282 283 282 279 280 281 279 276 276 277 275 275
296 290 282 280 276 272 272 274 272 272 277 276 275 275 274 276 276 277 276 276 277 277 279 280 279 282 285 284 283 281 282 282 281 278 276 276 276 275
297 292 287 283 275 271 273 274 275 274 275 275 276 278 278 278 277 278 279 280 279 279 280 282 282 283 284 284 283 283 282 281 280 277 275 274 274 274
296 294 289 283 278 274 273 274 275 276 276 275 276 277 278 278 278 280 282 281 280 280 281 283 284 285 285 284 283 283 282 280 278 276 274 273 273 273
294 292 290 286 281 277 276 276 276 275 277 278 277 278 279 280 280 281 284 283 280 281 282 284 286 286 286 285 284 283 281 279 277 276 275 274 274 273
296 294 289 284 282 278 277 277 278 277 279 281 282 282 282 280 280 282 283 283 282 282 282 284 286 286 286 285 284 283 280 280 278 277 276 275 275 273
296 294 291 286 282 278 277 278 278 278 279 281 282 283 283 282 282 283 284 284 284 284 284 286 286 287 287 288 287 286 283 281 280 279 277 276 275 275
295 293 290 286 282 280 280 279 279 279 279 281 282 283 285 285 284 284 285 285 285 285 285 286 287 288 288 290 290 289 286 284 282 282 280 279 278 276
293 293 290 288 287 283 282 282 282 282 281 282 282 282 283 284 284 285 287 287 287 288 287 286 287 289 290 290 290 291 290 287 286 285 283 281 280 278
293 291 290 288 286 284 281 282 283 285 285 283 282 282 282 283 285 286 287 286 288 289 288 287 288 290 293 293 292 291 290 287 287 286 284 282 281 279
295 291 290 288 285 284 283 283 284 284 285 284 283 283 284 285 286 286 286 287 288 290 289 288 289 290 292 294 293 293 293 291 290 288 285 282 281 279
296 291 289 287 286 284 284 285 285 283 283 282 282 283 285 287 286 286 286 289 291 292 292 291 291 292 291 292 294 294 294 294 293 291 288 284 281 278
296 293 289 288 287 285 284 283 284 283 283 283 283 283 285 287 286 286 286 289 291 292 293 293 293 293 292 292 293 295 295 297 296 295 292 287 283 280
295 294 291 289 287 286 284 283 284 283 284 284 285 285 285 285 286 286 287 289 292 292 293 294 294 293 293 293 294 295 296 297 297 296 294 292 288 284
292 292 291 291 290 289 286 284 285 284 284 283 283 284 284 286 287 288 289 291 292 292 293 294 294 293 292 292 293 293 294 295 296 296 294 293 291 288
291 291 292 293 291 289 287 285 284 284 282 281 283 283 284 284 286 289 290 292 293 293 293 293 294 292 291 292 294 293 293 294 294 295 295 294 292 289
292 292 293 294 292 290 289 286 285 282 281 281 281 281 283 284 286 288 290 291 292 292 293 294 294 293 293 293 294 294 293 294 294 294 295 295 293 289
293 293 293 294 293 291 289 286 284 282 282 282 281 281 282 284 286 288 289 291 292 293 294 293 293 293 292 293 295 295 294 294 293 294 295 295 293 291
293 294 294 294 293 292 290 288 286 284 283 283 283 282 282 284 286 287 289 290 292 293 294 294 293 293 292 292 293 295 295 295 294 295 295 295 294 291
293 293 292 292 291 291 290 288 288 286 285 285 284 284 284 284 285 286 288 289 290 292 292 292 293 294 294 293 292 294 295 295 294 293 294 295 294 291
291 291 290 290 290 289 290 289 288 287 285 285 285 283 284 286 287 288 290 290 291 291 291 291 291 291 292 292 292 294 295 295 295 295 294 294 294 292
290 290 290 289 289 288 289 290 288 286 285 285 284 284 285 287 288 290 291 292 293 293 293 292 291 290 291 292 293 293 294 294 294 294 294 295 293 291
288 290 290 289 288 288 288 288 287 286 286 284 285 285 287 288 289 290 291 292 294 294 293 293 292 291 292 293 293 292 292 293 293 293 293 294 294 291
Height
5828 5827 5827 5827 5826 5826 5826 5826 5826 5826 5825 5824 5824 5823 5823 5822 5822 5821 5821 5821 5820 5820 5819 5818 5817 5816 5815 5814 5813 5812 5811 5810 5809 5809 5808 5808 5807 5807
5825 5824 5823 5823 5822 5822 5822 5822 5822 5822 5821 5820 5820 5820 5819 5818 5818 5817 5817 5817 5816 5815 5814 5813 5813 5811 5810 5809 5808 5806 5805 5804 5803 5803 5802 5802 5801 5801
5821 5820 5819 5819 5818 5818 5818 5818 5818 5818 5817 5817 5816 5816 5815 5814 5814 5813 5813 5812 5811 5811 5810 5809 5807 5806 5805 5804 5802 5801 5799 5798 5797 5797 5796 5796 5795 5795
5817 5816 5815 5815 5814 5814 5814 5814 5814 5813 5813 5813 5812 5811 5811 5810 5810 5809 5808 5807 5806 5805 5804 5803 5802 5800 5799 5797 5796 5795 5793 5792 5791 5790 5790 5789 5789 5788
5813 5813 5812 5811 5810 5810 5810 5810 5809 5809 5809 5808 5808 5807 5806 5806 5805 5804 5803 5802 5801 5800 5799 5797 5796 5794 5792 5791 5789 5788 5787 5785 5784 5784 5783 5782 5782 5781
5809 5808 5807 5807 5806 5806 5806 5805 5805 5805 5804 5804 5803 5802 5801 5801 5800 5799 5798 5797 5795 5794 5793 5791 5790 5788 5786 5784 5783 5781 5780 5778 5777 5777 5776 5775 5775 5774
5805 5804 5803 5802 5802 5802 5801 5801 5801 5800 5800 5799 5798 5797 5796 5795 5794 5793 5792 5791 5789 5788 5787 5785 5783 5782 5780 5778 5776 5774 5773 5771 5770 5769 5768 5767 5767 5766
5800 5799 5798 5798 5797 5797 5797 5796 5796 5796 5795 5794 5793 5792 5792 5790 5789 5788 5786 5785 5784 5783 5781 5779 5777 5775 5773 5771 5769 5767 5766 5764 5763 5762 5761 5760 5758 5757
5796 5795 5794 5793 5792 5792 5792 5792 5791 5790 5790 5789 5788 5787 5786 5785 5784 5782 5781 5779 5778 5776 5774 5773 5770 5768 5766 5764 5762 5760 5759 5757 5756 5754 5753 5751 5750 5748
5791 5790 5789 5788 5788 5787 5787 5786 5786 5785 5784 5783 5782 5781 5780 5778 5777 5776 5775 5773 5771 5769 5767 5766 5763 5762 5760 5757 5755 5753 5752 5750 5748 5746 5744 5743 5741 5740
5786 5785 5784 5783 5782 5782 5781 5781 5780 5779 5777 5777 5776 5775 5773 5772 5771 5769 5768 5766 5765 5762 5760 5758 5756 5754 5753 5750 5748 5746 5744 5742 5740 5738 5736 5734 5733 5731
5781 5780 5779 5778 5777 5776 5775 5774 5773 5772 5771 5770 5769 5768 5767 5765 5764 5762 5761 5759 5757 5756 5753 5751 5749 5747 5746 5743 5741 5739 5737 5734 5732 5730 5727 5726 5724 5723
5776 5774 5773 5772 5771 5770 5769 5768 5767 5766 5765 5763 5762 5761 5760 5758 5757 5755 5753 5752 5750 5748 5746 5744 5742 5740 5738 5736 5734 5731 5729 5727 5724 5722 5720 5718 5716 5715
5770 5769 5767 5766 5765 5763 5762 5761 5760 5759 5758 5756 5755 5754 5753 5751 5750 5748 5746 5744 5743 5741 5739 5737 5735 5732 5730 5729 5727 5724 5722 5719 5717 5715 5713 5711 5709 5708
5765 5763 5762 5760 5758 5757 5755 5754 5753 5751 5750 5749 5748 5747 5746 5744 5743 5741 5739 5737 5735 5733 5731 5729 5727 5725 5723 5721 5720 5718 5715 5713 5710 5708 5706 5704 5702 5701
5758 5757 5755 5753 5752 5750 5748 5747 5745 5744 5743 5742 5741 5740 5738 5737 5736 5734 5732 5730 5728 5726 5724 5722 5720 5718 5716 5714 5712 5710 5708 5706 5704 5701 5699 5697 5696 5694
5752 5751 5749 5747 5745 5743 5741 5739 5738 5736 5735 5735 5733 5732 5731 5730 5728 5727 5725 5723 5721 5719 5717 5715 5712 5710 5709 5707 5705 5703 5701 5699 5697 5695 5693 5691 5688 5687
5746 5744 5742 5740 5738 5736 5734 5732 5730 5729 5728 5727 5726 5725 5724 5722 5721 5719 5717 5715 5713 5712 5710 5708 5705 5703 5702 5700 5698 5695 5693 5691 5690 5688 5685 5683 5682 5680
5739 5737 5735 5733 5731 5728 5726 5725 5723 5722 5720 5719 5718 5717 5716 5715 5713 5712 5710 5708 5706 5704 5702 5700 5698 5696 5695 5693 5691 5688 5686 5684 5682 5680 5678 5676 5675 5673
5732 5730 5728 5725 5723 5721 5719 5717 5716 5714 5713 5712 5711 5709 5708 5707 5705 5704 5702 5700 5698 5696 5694 5692 5690 5688 5687 5685 5683 5682 5679 5677 5675 5673 5671 5669 5668 5666
5724 5722 5720 5718 5716 5714 5712 5710 5709 5707 5706 5705 5703 5702 5701 5699 5698 5696 5694 5692 5690 5688 5687 5685 5683 5681 5679 5677 5676 5674 5672 5670 5668 5666 5664 5662 5660 5659
5717 5714 5712 5710 5708 5707 5705 5703 5701 5700 5699 5698 5696 5695 5693 5692 5690 5688 5686 5685 5683 5681 5679 5677 5675 5673 5671 5670 5668 5667 5665 5663 5661 5659 5657 5655 5653 5651
5709 5707 5705 5703 5701 5699 5697 5696 5694 5693 5691 5690 5688 5687 5686 5684 5683 5681 5679 5677 5676 5674 5672 5670 5668 5666 5664 5663 5661 5660 5658 5656 5654 5652 5650 5648 5646 5644